Laurinburg-Maxton, NC

3:00 PM EST on November 21, 2017 (GMT -0500)
Laurinburg-Maxton

Weather History for KMEB - February, 2013

Change the Weather History Date:

Saturday, February 2, 2013

  Actual Average (KHFF) Record (KHFF)
Temperature  
Mean Temperature 34 °F -  
Max Temperature 48 °F 53 °F 69 °F (2011)
Min Temperature 19 °F 31 °F 18 °F (2013)
Degree Days  
Heating Degree Days 32    
Moisture  
Dew Point 17 °F    
Average Humidity 51    
Maximum Humidity 85    
Minimum Humidity 23    
Precipitation  
Precipitation 0.00 in - - ()
Sea Level Pressure  
Sea Level Pressure 30.29 in    
Wind  
Wind Speed 5 mph (SSW)    
Max Wind Speed 20 mph    
Max Gust Speed 28 mph    
Visibility 10 miles    
Events      
Averages and records for this station are not official NWS values.
T = Trace of Precipitation, MM = Missing Value Source: NWS Daily Summary

Daily Weather History Graph

Daily Weather History Graph

Search for Another Location

Airport or City:

Trip Planner

Search our weather history database for the weather conditions in past years. The results will help you decide how hot, cold, wet, or windy it might be!

Date:

Astronomy

Feb. 02, 2013 Rise Set
Actual Time 7:14 AM EST 5:47 PM EST
Civil Twilight 6:48 AM EST 6:14 PM EST
Nautical Twilight 6:18 AM EST 6:44 PM EST
Astronomical Twilight 5:48 AM EST 7:14 PM EST
Moon No Moon Rise 10:42 AM EST (2/2)
Length of Visible Light 11h 25m
Length of Day
10h 32m
Waning Gibbous, 60% of the Moon is Illuminated
Feb 2
Waning Gibbous
Feb 3
Last Quarter
Feb 10
New
Feb 17
First Quarter
Feb 25
Full

Hourly Weather History & Observations

Time (EST) Temp. Windchill Dew Point Humidity Pressure Visibility Wind Dir Wind Speed Gust Speed Precip Events Conditions
12:52 AM 25.0 °F 17.1 °F 12.9 °F 60% 30.40 in 10.0 mi NE 6.9 mph - N/A   Clear
1:52 AM 24.1 °F 19.7 °F 12.0 °F 60% 30.40 in 10.0 mi NNE 3.5 mph - N/A   Clear
2:52 AM 23.0 °F - 12.0 °F 63% 30.40 in 10.0 mi Calm Calm - N/A   Clear
3:52 AM 19.9 °F - 12.0 °F 71% 30.41 in 10.0 mi Calm Calm - N/A   Clear
4:52 AM 19.9 °F - 14.0 °F 78% 30.41 in 10.0 mi Calm Calm - N/A   Clear
5:52 AM 19.9 °F - 16.0 °F 85% 30.40 in 10.0 mi Calm Calm - N/A   Clear
6:52 AM 19.9 °F - 15.1 °F 81% 30.41 in 10.0 mi Calm Calm - N/A   Clear
7:52 AM 21.9 °F - 14.0 °F 72% 30.43 in 10.0 mi Calm Calm - N/A   Clear
8:52 AM 28.0 °F 21.7 °F 12.0 °F 51% 30.43 in 10.0 mi East 5.8 mph - N/A   Clear
9:52 AM 32.0 °F 25.6 °F 9.0 °F 38% 30.42 in 10.0 mi ESE 6.9 mph - N/A   Clear
10:52 AM 36.0 °F 31.1 °F 10.0 °F 34% 30.39 in 10.0 mi SE 5.8 mph - N/A   Clear
11:52 AM 39.9 °F 37.8 °F 9.0 °F 28% 30.35 in 10.0 mi South 3.5 mph - N/A   Clear
12:52 PM 44.1 °F 40.1 °F 9.0 °F 24% 30.29 in 10.0 mi Variable 6.9 mph - N/A   Clear
1:52 PM 46.0 °F 41.9 °F 10.9 °F 24% 30.24 in 10.0 mi South 8.1 mph - N/A   Clear
2:52 PM 48.9 °F - 12.0 °F 23% 30.20 in 10.0 mi WSW 10.4 mph 17.3 mph N/A   Clear
3:52 PM 48.0 °F - 12.9 °F 24% 30.19 in 10.0 mi WSW 9.2 mph - N/A   Scattered Clouds
4:52 PM 48.9 °F - 16.0 °F 27% 30.16 in 10.0 mi SSW 9.2 mph - N/A   Clear
5:52 PM 45.0 °F 42.6 °F 19.9 °F 37% 30.14 in 10.0 mi SSW 4.6 mph - N/A   Clear
6:52 PM 44.1 °F 40.8 °F 24.1 °F 45% 30.12 in 10.0 mi South 5.8 mph - N/A   Mostly Cloudy
7:52 PM 46.0 °F 43.9 °F 27.0 °F 47% 30.10 in 10.0 mi SSW 4.6 mph - N/A   Mostly Cloudy
9:52 PM 46.9 °F - 30.9 °F 54% 30.12 in 10.0 mi West 19.6 mph 27.6 mph N/A   Overcast
10:52 PM 43.0 °F 37.7 °F 36.0 °F 76% 30.09 in 10.0 mi West 9.2 mph - 0.00 in   Overcast
11:52 PM 43.0 °F 38.2 °F 35.1 °F 74% 30.07 in 10.0 mi West 8.1 mph - N/A   Overcast